Beaufort, NC

10:43 AM EST on December 06, 2019 (GMT -0500)
Smith

Weather History for KMRH - June, 2019

Change the Weather History Date:

Saturday, June 8, 2019

  Actual Average Record
Temperature  
Mean Temperature 78 °F -  
Max Temperature 80 °F 82 °F 94 °F (1954)
Min Temperature 75 °F 66 °F 48 °F (1977)
Cooling Degree Days 12    
Growing Degree Days 28 (Base 50)    
Moisture  
Dew Point 72 °F    
Average Humidity 85    
Maximum Humidity 94    
Minimum Humidity 74    
Precipitation  
Precipitation 0.01 in - - ()
Sea Level Pressure  
Sea Level Pressure 29.94 in    
Wind  
Wind Speed 4 mph (East)    
Max Wind Speed 9 mph    
Max Gust Speed -    
Visibility 9 miles    
Events Rain    
Averages and records for this station are not official NWS values.
T = Trace of Precipitation, MM = Missing Value Source: NWS Daily Summary

Daily Weather History Graph

Daily Weather History Graph

Search for Another Location

Airport or City:

Astronomy

Jun. 08, 2019 Rise Set
Actual Time 5:53 AM EDT 8:18 PM EDT
Civil Twilight 5:23 AM EDT 8:47 PM EDT
Nautical Twilight 4:47 AM EDT 9:24 PM EDT
Astronomical Twilight 4:08 AM EDT 10:03 PM EDT
Moon 11:13 AM EDT (6/8) 12:22 AM EDT (6/8)
Length of Visible Light 15h 24m
Length of Day
14h 25m
Waxing Crescent, 32% of the Moon is Illuminated
Jun 8
Waxing Crescent
Jun 10
First Quarter
Jun 17
Full
Jun 25
Last Quarter
Jul 2
New

Hourly Weather History & Observations

Time (EDT) Temp. Heat Index Dew Point Humidity Pressure Visibility Wind Dir Wind Speed Gust Speed Precip Events Conditions
12:58 AM 75.0 °F - 72.0 °F 90% 29.88 in 10.0 mi Calm Calm - N/A   Mostly Cloudy
1:58 AM 75.0 °F - 72.0 °F 90% 29.88 in 10.0 mi East 3.5 mph - N/A   Mostly Cloudy
2:17 AM 75.0 °F - 72.0 °F 90% 29.88 in 10.0 mi ENE 4.6 mph - N/A   Overcast
2:36 AM 75.0 °F - 73.0 °F 94% 29.88 in 10.0 mi East 3.5 mph - N/A   Mostly Cloudy
2:58 AM 75.9 °F - 73.0 °F 91% 29.88 in 10.0 mi East 4.6 mph - N/A   Mostly Cloudy
3:58 AM 75.9 °F - 72.0 °F 87% 29.88 in 9.0 mi ENE 3.5 mph - N/A Rain Light Rain
4:58 AM 75.0 °F - 72.0 °F 90% 29.88 in 5.0 mi NE 4.6 mph - N/A Rain Heavy Rain
5:58 AM 75.0 °F - 71.1 °F 87% 29.89 in 10.0 mi East 4.6 mph - N/A Rain Light Rain
6:58 AM 75.0 °F - 72.0 °F 90% 29.91 in 5.0 mi ESE 4.6 mph - N/A Rain Rain
7:06 AM 75.0 °F - 73.0 °F 94% 29.91 in 6.0 mi ESE 3.5 mph - N/A Rain Light Rain
7:58 AM 75.9 °F - 73.0 °F 91% 29.93 in 4.0 mi ESE 9.2 mph - N/A Rain Rain
8:58 AM 75.9 °F - 73.0 °F 91% 29.94 in 10.0 mi ESE 8.1 mph - N/A   Overcast
9:58 AM 75.9 °F - 73.0 °F 91% 29.95 in 10.0 mi East 4.6 mph - N/A Rain Light Rain
10:30 AM 77.0 °F - 73.9 °F 90% 29.96 in 10.0 mi ESE 4.6 mph - 0.00 in Rain Light Rain
10:58 AM 77.0 °F - 73.0 °F 88% 29.96 in 10.0 mi ESE 6.9 mph - 0.00 in   Scattered Clouds
11:27 AM 78.1 °F - 73.0 °F 84% 29.97 in 10.0 mi East 8.1 mph - N/A   Mostly Cloudy
11:36 AM 78.1 °F - 73.0 °F 84% 29.97 in 10.0 mi East 6.9 mph - N/A   Scattered Clouds
11:58 AM 79.0 °F - 73.0 °F 82% 29.97 in 10.0 mi East 8.1 mph - 0.01 in   Mostly Cloudy
12:58 PM 79.0 °F - 73.0 °F 82% 29.96 in 10.0 mi East 6.9 mph - N/A   Scattered Clouds
1:58 PM 79.0 °F - 72.0 °F 79% 29.96 in 10.0 mi East 6.9 mph - N/A   Mostly Cloudy
2:25 PM 80.1 °F 83.8 °F 72.0 °F 76% 29.95 in 10.0 mi ESE 8.1 mph - N/A   Mostly Cloudy
3:35 PM 80.1 °F 83.8 °F 72.0 °F 76% 29.95 in 10.0 mi ESE 6.9 mph - N/A   Mostly Cloudy
3:54 PM 80.6 °F 84.6 °F 71.6 °F 74% 29.95 in 10.0 mi Variable 5.8 mph - N/A   Overcast
3:58 PM 80.1 °F 83.8 °F 72.0 °F 76% 29.95 in 10.0 mi East 5.8 mph - N/A   Overcast
4:44 PM 80.1 °F 83.8 °F 72.0 °F 76% 29.96 in 10.0 mi East 5.8 mph - N/A   Overcast
4:58 PM 80.1 °F 83.8 °F 72.0 °F 76% 29.97 in 10.0 mi East 8.1 mph - N/A   Overcast
5:11 PM 79.0 °F - 72.0 °F 79% 29.97 in 10.0 mi East 9.2 mph - N/A   Overcast
5:34 PM 78.1 °F - 72.0 °F 81% 29.96 in 10.0 mi East 9.2 mph - N/A   Mostly Cloudy
5:58 PM 78.1 °F - 73.0 °F 84% 29.96 in 10.0 mi ENE 6.9 mph - N/A   Mostly Cloudy
6:58 PM 78.1 °F - 72.0 °F 81% 29.98 in 10.0 mi East 4.6 mph - N/A   Clear
7:58 PM 77.0 °F - 72.0 °F 84% 29.98 in 10.0 mi Calm Calm - N/A   Partly Cloudy
8:58 PM 75.9 °F - 72.0 °F 87% 29.99 in 10.0 mi Calm Calm - N/A   Clear
9:58 PM 75.9 °F - 72.0 °F 87% 29.99 in 10.0 mi Calm Calm - N/A   Clear
10:58 PM 75.0 °F - 72.0 °F 90% 29.99 in 10.0 mi NNE 4.6 mph - N/A   Clear
11:58 PM 75.0 °F - 71.1 °F 87% 30.01 in 10.0 mi Calm Calm - N/A   Clear